Погода в Тюлькином

Россия / Пермский край     59°50′22″N   56°31′27″E
темп.,
°C
ветер,
м/с
пор.,
м/с
влажн.,
%
обл.,
%
осадки,
мм/ч
давл.,
гПа
погр.,
м
23 апреля, пт
пт2323:00+4ю4996100 0.1 1027844
02:00+4ю4995100 0.1 1026550
05:00+4ю3992100 0.1 1026455
08:00+5ю3889100 0.0 1026444
11:00+6ююз4890100 0.0 1027642
14:00+6ю4890100 0.3 1028584
17:00+7ю3683100 0.4 1028693
20:00+6ююв248989 0.1 1028144
24 апреля, сб
сб2423:00+5ююв269289 0.1 1028245
02:00+4юв2692100 0.0 1028230
05:00+4вюв2592100 0.0 1027159
08:00+4вюв268598 0.0 1026321
11:00+8вюв4665100 0.0 10241103
14:00+9вюв4666100 0.0 10211165
17:00+7вюв4882100 0.4 10211043
20:00+6вюв41087100 0.3 1019842
25 апреля, вс
вс2523:00+5вюв51091100 0.3 1018871
02:00+4вюв4997100 0.3 1016965
05:00+5юв4118999 0.8 1015791
08:00+5вюв5127894 0.0 1014765
11:00+8юв51063100 0.0 10121333
14:00+7юв61070100 0.1 10101319
17:00+4вюв51196100 0.8 1008795
20:00+4юв41297100 2.4 1006954
26 апреля, пн
пн2623:00+3ю6996100 3.9 1005986
02:00+3ююз51097100 0.5 1006750
05:00+3юз51082100 1.7 1006871
08:00+4юз51074100 0.0 10081225
11:00+3юз5107377 0.1 10101283
14:00+8зюз71152100 0.7 10102214
17:00+8юз6105677 1.3 10101883
20:00+6юз5106924 0.7 1010928
27 апреля, вт
вт2723:00+4юз411805 0.8 1011453
02:00+2ююз310904 0.0 1011297
05:000ю27955 0.0 1011145
08:00+3ююз36795 0.0 1010268
11:00+8юз35535 0.0 10081512
14:00+9юз3543100 0.1 10071920
17:00+10зюз343974 0.1 10052089
20:00+8ююз22545 0.0 100436